Watertown, NY

9:13 AM EDT on September 16, 2019 (GMT -0400)
Watertown International

Weather History for KART - August, 2019

Change the Weather History Date:

Thursday, August 22, 2019

  Actual Average Record
Temperature  
Mean Temperature 66 °F 66 °F  
Max Temperature 74 °F 78 °F 88 °F (1974)
Min Temperature 57 °F 56 °F 34 °F (1988)
Degree Days  
Heating Degree Days 0 2  
Month to date heating degree days 4 25  
Since 1 June heating degree days 109 158  
Since 1 July heating degree days 7 51  
Cooling Degree Days 1 3  
Month to date cooling degree days 83 87  
Year to date cooling degree days 314 299  
Since 1 June cooling degree days 314 288  
Growing Degree Days 18 (Base 50)    
Moisture  
Dew Point 60 °F    
Average Humidity 70    
Maximum Humidity 90    
Minimum Humidity 49    
Precipitation  
Precipitation T in 0.11 in 2.29 in (2014)
Month to date precipitation 2.59 2.26  
Year to date precipitation 26.95 20.91  
Sea Level Pressure  
Sea Level Pressure 29.85 in    
Wind  
Wind Speed 8 mph (WSW)    
Max Wind Speed 17 mph    
Max Gust Speed 24 mph    
Visibility 10 miles    
Events Rain    
T = Trace of Precipitation, MM = Missing Value Source: NWS Daily Summary

Daily Weather History Graph

Daily Weather History Graph

Search for Another Location

Airport or City:

Astronomy

Aug. 22, 2019 Rise Set
Actual Time 6:15 AM EDT 7:57 PM EDT
Civil Twilight 5:45 AM EDT 8:28 PM EDT
Nautical Twilight 5:07 AM EDT 9:05 PM EDT
Astronomical Twilight 4:27 AM EDT 9:44 PM EDT
Moon 11:31 PM EDT (8/22) 1:02 PM EDT (8/22)
Length of Visible Light 14h 42m
Length of Day
13h 41m
Waning Gibbous, 60% of the Moon is Illuminated
Aug 22
Waning Gibbous
Aug 23
Last Quarter
Aug 30
New
Sep 5
First Quarter
Sep 14
Full

Hourly Weather History & Observations

Time (EDT) Temp. Dew Point Humidity Pressure Visibility Wind Dir Wind Speed Gust Speed Precip Events Conditions
12:56 AM 73.9 °F 66.9 °F 79% 29.78 in 10.0 mi SSW 10.4 mph - N/A   Overcast
1:56 AM 73.9 °F 68.0 °F 82% 29.79 in 10.0 mi SSW 9.2 mph - N/A   Overcast
2:45 AM 73.9 °F 69.1 °F 85% 29.78 in 8.0 mi SSW 10.4 mph - N/A   Overcast
2:56 AM 73.9 °F 69.1 °F 85% 29.76 in 8.0 mi SW 8.1 mph - N/A   Overcast
3:40 AM 72.0 °F 68.0 °F 87% 29.77 in 9.0 mi WNW 11.5 mph - 0.00 in Rain Light Rain
3:51 AM 71.6 °F 64.4 °F 78% 29.77 in 10.0 mi WNW 6.9 mph - 0.00 in Rain Light Rain
3:56 AM 71.1 °F 64.9 °F 81% 29.76 in 10.0 mi WNW 5.8 mph - 0.00 in   Mostly Cloudy
4:56 AM 69.1 °F 64.0 °F 84% 29.78 in 10.0 mi SW 3.5 mph - N/A   Overcast
5:56 AM 66.9 °F 63.0 °F 87% 29.81 in 10.0 mi SW 3.5 mph - N/A   Mostly Cloudy
6:56 AM 69.1 °F 62.1 °F 78% 29.83 in 10.0 mi WSW 4.6 mph - N/A   Overcast
7:56 AM 70.0 °F 60.1 °F 71% 29.84 in 10.0 mi WSW 6.9 mph - N/A   Mostly Cloudy
8:56 AM 71.1 °F 60.1 °F 68% 29.85 in 10.0 mi West 11.5 mph 20.7 mph N/A   Clear
9:56 AM 71.1 °F 57.0 °F 61% 29.87 in 10.0 mi West 13.8 mph - N/A   Clear
10:56 AM 71.1 °F 57.0 °F 61% 29.88 in 10.0 mi WSW 11.5 mph - N/A   Clear
11:56 AM 73.0 °F 55.9 °F 55% 29.89 in 10.0 mi WSW 11.5 mph - N/A   Clear
12:56 PM 72.0 °F 53.1 °F 51% 29.90 in 10.0 mi WSW 12.7 mph 20.7 mph N/A   Clear
1:56 PM 73.0 °F 53.1 °F 49% 29.89 in 10.0 mi West 13.8 mph - N/A   Clear
2:56 PM 73.0 °F 55.0 °F 53% 29.89 in 10.0 mi WSW 10.4 mph - N/A   Clear
3:56 PM 73.0 °F 55.9 °F 55% 29.88 in 10.0 mi WSW 11.5 mph - N/A   Clear
4:56 PM 73.0 °F 57.0 °F 57% 29.89 in 10.0 mi WSW 10.4 mph - N/A   Clear
5:56 PM 72.0 °F 57.0 °F 59% 29.88 in 10.0 mi WSW 11.5 mph - N/A   Clear
6:56 PM 70.0 °F 57.9 °F 65% 29.89 in 10.0 mi SW 8.1 mph - N/A   Clear
7:56 PM 68.0 °F 57.0 °F 68% 29.89 in 10.0 mi SW 8.1 mph - N/A   Scattered Clouds
8:56 PM 66.0 °F 57.9 °F 75% 29.91 in 10.0 mi South 8.1 mph - N/A   Clear
9:56 PM 64.0 °F 57.9 °F 80% 29.91 in 10.0 mi South 4.6 mph - N/A   Mostly Cloudy
10:56 PM 64.9 °F 57.9 °F 78% 29.93 in 10.0 mi North 3.5 mph - N/A   Mostly Cloudy
11:56 PM 60.1 °F 57.0 °F 90% 29.94 in 10.0 mi Calm Calm - N/A   Mostly Cloudy